Time,TemperatureF,DewpointF,PressureIn,WindDirection,WindDirectionDegrees,WindSpeedMPH,WindSpeedGustMPH,Humidity,HourlyPrecipIn,Conditions,Clouds,dailyrainin,SoftwareType,DateUTC
2013-05-07 00:03:00,40.0,38.0,29.93,ESE,105,0.0,-999.0,93,-99.99,,,-99.99,,2013-05-07 04:03:00,
2013-05-07 00:12:00,40.0,38.0,29.93,ESE,105,0.0,-999.0,93,-99.99,,,-99.99,,2013-05-07 04:12:00,
2013-05-07 00:23:00,40.0,38.0,29.93,East,95,0.0,-999.0,93,-99.99,,,-99.99,,2013-05-07 04:23:00,
2013-05-07 00:33:00,40.0,38.0,29.92,South,178,0.0,-999.0,91,-99.99,,,-99.99,,2013-05-07 04:33:00,
2013-05-07 00:42:00,40.0,38.0,29.92,South,178,0.0,-999.0,91,-99.99,,,-99.99,,2013-05-07 04:42:00,
2013-05-07 00:53:00,40.0,37.0,29.91,SE,140,0.0,-999.0,90,-99.99,,,-99.99,,2013-05-07 04:53:00,
2013-05-07 01:02:00,40.0,37.0,29.91,ESE,104,0.0,-999.0,90,-99.99,,,-99.99,,2013-05-07 05:02:00,
2013-05-07 01:12:00,40.0,37.0,29.91,ESE,104,0.0,-999.0,90,-99.99,,,-99.99,,2013-05-07 05:12:00,
2013-05-07 01:22:00,41.0,38.0,29.91,ESE,105,0.0,-999.0,90,-99.99,,,-99.99,,2013-05-07 05:22:00,
2013-05-07 01:32:00,40.0,38.0,29.90,NNW,338,0.0,-999.0,93,-99.99,,,-99.99,,2013-05-07 05:32:00,
2013-05-07 01:42:00,40.0,38.0,29.90,NNW,338,0.0,-999.0,93,-99.99,,,-99.99,,2013-05-07 05:42:00,
2013-05-07 01:52:00,39.0,38.0,29.90,NNW,336,1.0,-999.0,95,-99.99,,,-99.99,,2013-05-07 05:52:00,
2013-05-07 02:02:00,39.0,38.0,29.89,West,271,0.0,-999.0,96,-99.99,,,-99.99,,2013-05-07 06:02:00,
2013-05-07 02:12:00,39.0,38.0,29.89,West,271,0.0,-999.0,96,-99.99,,,-99.99,,2013-05-07 06:12:00,
2013-05-07 02:22:00,39.0,38.0,29.89,North,5,1.0,-999.0,98,-99.99,,,-99.99,,2013-05-07 06:22:00,
2013-05-07 02:32:00,39.0,38.0,29.89,North,9,0.0,-999.0,95,-99.99,,,-99.99,,2013-05-07 06:32:00,
2013-05-07 02:42:00,39.0,38.0,29.89,North,9,0.0,-999.0,95,-99.99,,,-99.99,,2013-05-07 06:42:00,
2013-05-07 02:51:00,41.0,39.0,29.87,SSW,211,0.0,-999.0,92,-99.99,,,-99.99,,2013-05-07 06:51:00,
2013-05-07 02:52:00,40.0,38.0,29.88,North,9,0.0,-999.0,93,-99.99,,,-99.99,,2013-05-07 06:52:00,
2013-05-07 03:02:00,41.0,39.0,29.88,SE,127,0.0,-999.0,91,-99.99,,,-99.99,,2013-05-07 07:02:00,
2013-05-07 03:11:00,41.0,39.0,29.88,SE,127,0.0,-999.0,91,-99.99,,,-99.99,,2013-05-07 07:11:00,
2013-05-07 03:22:00,41.0,39.0,29.87,SSW,211,0.0,-999.0,92,-99.99,,,-99.99,,2013-05-07 07:22:00,
2013-05-07 03:32:00,41.0,39.0,29.87,SSW,211,0.0,-999.0,92,-99.99,,,-99.99,,2013-05-07 07:32:00,
2013-05-07 03:42:00,41.0,39.0,29.87,SSW,211,0.0,-999.0,92,-99.99,,,-99.99,,2013-05-07 07:42:00,
2013-05-07 16:22:00,60.0,41.0,29.85,West,271,2.0,-999.0,50,-99.99,,,-99.99,,2013-05-07 20:22:00,
2013-05-07 16:32:00,59.0,40.0,29.85,NNE,15,1.0,-999.0,49,-99.99,,,-99.99,,2013-05-07 20:32:00,
2013-05-07 16:42:00,59.0,40.0,29.85,NNE,15,1.0,-999.0,49,-99.99,,,-99.99,,2013-05-07 20:42:00,
2013-05-07 16:52:00,59.0,41.0,29.84,North,5,2.0,-999.0,51,-99.99,,,-99.99,,2013-05-07 20:52:00,
2013-05-07 17:01:00,61.0,41.0,29.83,WNW,290,2.0,-999.0,48,-99.99,,,-99.99,,2013-05-07 21:01:00,
2013-05-07 17:11:00,61.0,41.0,29.83,WNW,290,2.0,-999.0,48,-99.99,,,-99.99,,2013-05-07 21:11:00,
2013-05-07 17:22:00,61.0,43.0,29.84,SE,134,2.0,-999.0,51,-99.99,,,-99.99,,2013-05-07 21:22:00,
2013-05-07 17:33:00,61.0,45.0,29.85,SE,135,4.0,-999.0,56,-99.99,,,-99.99,,2013-05-07 21:33:00,
2013-05-07 17:42:00,61.0,45.0,29.85,SE,135,4.0,-999.0,56,-99.99,,,-99.99,,2013-05-07 21:42:00,
2013-05-07 17:53:00,61.0,43.0,29.85,WSW,246,3.0,-999.0,51,-99.99,,,-99.99,,2013-05-07 21:53:00,
2013-05-07 18:02:00,60.0,42.0,29.85,NE,52,3.0,-999.0,52,-99.99,,,-99.99,,2013-05-07 22:02:00,
2013-05-07 18:13:00,60.0,42.0,29.85,NE,52,3.0,-999.0,52,-99.99,,,-99.99,,2013-05-07 22:13:00,
2013-05-07 18:22:00,61.0,43.0,29.86,SW,229,1.0,-999.0,51,-99.99,,,-99.99,,2013-05-07 22:22:00,
2013-05-07 18:33:00,58.0,40.0,29.88,NW,316,3.0,-999.0,51,-99.99,,,-99.99,,2013-05-07 22:33:00,
2013-05-07 18:42:00,58.0,40.0,29.88,NW,316,3.0,-999.0,51,-99.99,,,-99.99,,2013-05-07 22:42:00,
2013-05-07 18:52:00,57.0,39.0,29.88,West,269,5.0,-999.0,51,-99.99,,,-99.99,,2013-05-07 22:52:00,
2013-05-07 19:02:00,56.0,39.0,29.88,NNE,17,6.0,-999.0,53,-99.99,,,-99.99,,2013-05-07 23:02:00,
2013-05-07 19:12:00,56.0,39.0,29.88,NNE,17,6.0,-999.0,53,-99.99,,,-99.99,,2013-05-07 23:12:00,
2013-05-07 19:21:00,55.0,40.0,29.90,West,261,6.0,-999.0,56,-99.99,,,-99.99,,2013-05-07 23:21:00,
2013-05-07 19:32:00,54.0,39.0,29.89,NNE,16,7.0,-999.0,56,-99.99,,,-99.99,,2013-05-07 23:32:00,
2013-05-07 19:42:00,54.0,39.0,29.89,NNE,16,7.0,-999.0,56,-99.99,,,-99.99,,2013-05-07 23:42:00,
2013-05-07 19:52:00,52.0,39.0,29.90,WSW,257,5.0,-999.0,61,-99.99,,,-99.99,,2013-05-07 23:52:00,
2013-05-07 20:02:00,51.0,39.0,29.91,NW,325,4.0,-999.0,64,-99.99,,,-99.99,,2013-05-08 00:02:00,
2013-05-07 20:12:00,51.0,39.0,29.91,NW,325,4.0,-999.0,64,-99.99,,,-99.99,,2013-05-08 00:12:00,
2013-05-07 20:22:00,51.0,38.0,29.92,ENE,71,4.0,-999.0,62,-99.99,,,-99.99,,2013-05-08 00:22:00,
2013-05-07 20:32:00,51.0,40.0,29.92,NW,306,6.0,-999.0,66,-99.99,,,-99.99,,2013-05-08 00:32:00,
2013-05-07 20:42:00,51.0,40.0,29.92,NW,306,6.0,-999.0,66,-99.99,,,-99.99,,2013-05-08 00:42:00,
2013-05-07 20:51:00,50.0,39.0,29.93,NNW,329,5.0,-999.0,67,-99.99,,,-99.99,,2013-05-08 00:51:00,
2013-05-07 21:02:00,50.0,40.0,29.94,NNW,340,7.0,-999.0,68,-99.99,,,-99.99,,2013-05-08 01:02:00,
2013-05-07 21:11:00,50.0,40.0,29.94,NNW,340,7.0,-999.0,68,-99.99,,,-99.99,,2013-05-08 01:11:00,
2013-05-07 21:22:00,49.0,40.0,29.94,NNW,335,6.0,-999.0,71,-99.99,,,-99.99,,2013-05-08 01:22:00,
2013-05-07 21:32:00,49.0,40.0,29.93,NW,323,6.0,-999.0,71,-99.99,,,-99.99,,2013-05-08 01:32:00,
2013-05-07 21:42:00,49.0,40.0,29.93,NW,323,6.0,-999.0,71,-99.99,,,-99.99,,2013-05-08 01:42:00,
2013-05-07 21:52:00,49.0,40.0,29.93,NW,323,4.0,-999.0,71,-99.99,,,-99.99,,2013-05-08 01:52:00,
2013-05-07 22:02:00,49.0,40.0,29.93,NW,308,2.0,-999.0,72,-99.99,,,-99.99,,2013-05-08 02:02:00,
2013-05-07 22:12:00,49.0,40.0,29.93,NW,308,2.0,-999.0,72,-99.99,,,-99.99,,2013-05-08 02:12:00,
2013-05-07 22:22:00,48.0,40.0,29.93,NNW,330,4.0,-999.0,74,-99.99,,,-99.99,,2013-05-08 02:22:00,
2013-05-07 22:32:00,48.0,40.0,29.94,NE,34,3.0,-999.0,74,-99.99,,,-99.99,,2013-05-08 02:32:00,
2013-05-07 22:42:00,48.0,40.0,29.94,NE,34,3.0,-999.0,74,-99.99,,,-99.99,,2013-05-08 02:42:00,
2013-05-07 22:52:00,48.0,40.0,29.94,NW,309,3.0,-999.0,75,-99.99,,,-99.99,,2013-05-08 02:52:00,
2013-05-07 23:02:00,48.0,41.0,29.94,NNW,348,3.0,-999.0,76,-99.99,,,-99.99,,2013-05-08 03:02:00,
2013-05-07 23:11:00,48.0,41.0,29.94,NNW,348,3.0,-999.0,76,-99.99,,,-99.99,,2013-05-08 03:11:00,
2013-05-07 23:22:00,48.0,41.0,29.94,NNW,333,4.0,-999.0,78,-99.99,,,-99.99,,2013-05-08 03:22:00,
2013-05-07 23:33:00,48.0,42.0,29.94,NW,321,5.0,-999.0,79,-99.99,,,-99.99,,2013-05-08 03:33:00,
2013-05-07 23:43:00,48.0,42.0,29.94,NW,321,5.0,-999.0,79,-99.99,,,-99.99,,2013-05-08 03:43:00,
2013-05-07 23:52:00,48.0,42.0,29.94,NNW,333,4.0,-999.0,79,-99.99,,,-99.99,,2013-05-08 03:52:00,